CST,Max TemperatureF,Mean TemperatureF,Min TemperatureF,Max Dew PointF,MeanDew PointF,Min DewpointF,Max Humidity, Mean Humidity, Min Humidity, Max Sea Level PressureIn, Mean Sea Level PressureIn, Min Sea Level PressureIn, Max VisibilityMiles, Mean VisibilityMiles, Min VisibilityMiles, Max Wind SpeedMPH, Mean Wind SpeedMPH, Max Gust SpeedMPH,PrecipitationIn, CloudCover, Events, WindDirDegrees
2012-10-1,90,82,75,79,77,76,100,85,66,29.94,29.87,29.82,17,9,6,9,3,,0.00,6,,237
2012-10-2,91,83,75,79,77,73,100,76,52,29.96,29.92,29.87,17,8,6,9,3,,0.00,3,,249
2012-10-3,94,84,73,79,76,73,95,72,44,29.97,29.92,29.85,17,10,6,12,3,,0.00,4,Thunderstorm,351
2012-10-4,93,84,74,77,75,73,83,63,46,30.00,29.96,29.91,17,9,6,9,4,,0.00,1,,21
2012-10-5,93,84,75,78,76,73,95,71,49,29.99,29.93,29.89,17,10,6,7,3,,0.00,4,,315
2012-10-6,89,84,78,79,77,77,94,75,66,,,,6,6,6,7,3,,0.00,2,,240
2012-10-7,90,84,77,79,76,73,100,75,50,29.93,29.88,29.84,17,10,6,12,5,,0.31,6,Thunderstorm,48
2012-10-8,92,84,77,79,77,73,89,73,61,29.94,29.90,29.87,17,9,6,12,6,,0.00,3,Thunderstorm,283
2012-10-9,90,84,75,79,77,72,100,83,66,29.98,29.92,29.86,17,8,1,5,3,,0.59,6,Rain-Thunderstorm,6
2012-10-10,87,81,75,79,78,75,99,81,68,30.01,29.97,29.88,17,9,6,7,2,,0.00,6,,235
2012-10-11,92,84,75,81,76,73,94,72,51,29.98,29.92,29.86,17,11,6,9,3,,0.00,2,,14
2012-10-12,91,84,77,79,78,75,94,72,60,30.00,29.93,29.87,17,9,6,7,4,,0.00,1,,240
2012-10-13,93,86,78,81,77,75,89,69,56,29.90,29.88,29.85,17,9,6,12,4,,0.00,2,Thunderstorm,72
2012-10-14,92,82,72,77,76,72,94,71,55,29.98,29.91,29.84,17,10,6,7,3,,0.00,1,,240
2012-10-15,89,82,74,77,76,72,94,78,62,29.93,29.88,29.83,17,9,6,7,2,,0.00,5,,244
2012-10-16,89,83,77,79,77,75,100,77,62,29.97,29.90,29.84,17,9,6,12,5,,0.00,1,,253
2012-10-17,89,82,75,79,78,76,100,82,63,29.93,29.88,29.83,17,9,6,7,3,,0.16,4,,240
2012-10-18,86,82,77,79,77,75,94,82,70,29.93,29.89,29.85,17,10,6,12,3,,0.02,5,,237
2012-10-19,90,82,73,79,77,75,100,83,62,29.92,29.87,29.82,17,9,6,9,3,,0.00,6,,273
2012-10-20,88,80,72,79,77,74,100,84,71,29.89,29.85,29.82,17,9,6,9,3,,0.04,5,Rain-Thunderstorm,244
2012-10-21,89,82,76,79,77,75,100,79,61,29.89,29.85,29.81,17,9,6,7,2,,0.00,6,Thunderstorm,237
2012-10-22,89,82,75,81,78,75,97,80,63,29.92,29.85,29.78,17,10,6,12,3,,0.00,4,,234
2012-10-23,87,80,73,79,76,75,100,80,63,29.84,29.80,29.74,17,8,6,7,4,,0.00,6,,249
2012-10-24,90,82,75,79,77,73,96,78,58,29.88,29.81,29.78,17,9,6,9,3,,0.00,2,Thunderstorm,233
2012-10-25,89,82,75,77,75,74,89,72,59,29.91,29.86,29.80,17,9,6,9,3,,0.00,6,,244
2012-10-26,88,82,77,79,78,75,100,82,66,29.91,29.87,29.82,17,9,6,12,6,,0.00,1,,285
2012-10-27,89,82,76,79,77,75,95,76,60,29.93,29.89,29.81,17,10,6,9,3,,0.00,1,,7
2012-10-28,90,83,76,75,73,69,79,66,48,29.96,29.90,29.84,17,10,6,12,3,,0.00,1,,360
2012-10-29,91,82,72,77,74,70,83,69,51,29.95,29.91,29.87,17,10,6,7,3,,0.00,1,,318
2012-10-30,91,83,75,77,74,72,89,71,52,29.95,29.91,29.89,17,9,6,7,2,,0.00,2,,244
2012-10-31,91,82,74,79,75,72,94,72,48,29.98,29.94,29.89,17,10,6,9,6,,0.00,2,,252